Location: Bremen
(53.0793°N, 8.8017°E)
Time: 02:16:14
(UTC+01:00)

Transit 2A - Pass Details

Date: 06 December 2021
Orbit: 591 x 967 km, 66.7° (Epoch: 17 January)

Event Time Altitude Azimuth Distance (km) Brightness Sun altitude
Exits shadow 03:51:17 20° 20° (NNE) 2,052 8.4 -39.3°
Drops below altitude 10° 03:54:10 10° 44° (NE) 2,716 9.4 -38.9°
Sets 03:57:17 0° 58° (ENE) 3,662 10.3 -38.4°
